Regional Weather Roundup
Issued by NWS

Home | Current Version | Previous Version | Graphics & Text | Print | Product List | Glossary On
Versions: 1 2 3 4 5 6 7 8 9 10 11 12 13 14 15 16 17 18 19 20 21 22 23 24 25 26 27 28 29 30 31 32 33 34 35 36 37 38 39 40 41 42 43 44 45 46 47 48 49 50
000
ASUS43 KMKX 020110
RWRWI

WISCONSIN REGIONAL WEATHER ROUNDUP
NATIONAL WEATHER SERVICE MILWAUKEE/SULLIVAN WI
700 PM CST SUN MAR 01 2015

NOTE: "FAIR" INDICATES FEW OR NO CLOUDS BELOW 12,000 FEET WITH NO
SIGNIFICANT WEATHER AND/OR OBSTRUCTIONS TO VISIBILITY.

WIZ001-002-006>008-014>016-023>028-020200-
NORTHWEST WISCONSIN

CITY           SKY/WX    TMP DP  RH WIND       PRES   REMARKS
SUPERIOR ARPT  CLOUDY    24  12  60 W12       30.18R WCI  13
ASHLAND        CLOUDY    22   7  52 W10       30.16R WCI  11
HAYWARD        CLOUDY    21   5  50 SW5       30.16R WCI  15
SIREN          CLOUDY    23  10  58 NW8       30.21R WCI  14
CUMBERLAND     PTCLDY    18   7  62 W5        30.19R WCI  11
RICE LAKE      PTCLDY    19   9  65 W5        30.21R WCI  12
CHETEK         PTCLDY    21  10  62 W6        30.21R WCI  13
LADYSMITH      CLEAR     20   6  54 W8        30.19R WCI  10
EAU CLAIRE     PTCLDY    19   7  59 SW7       30.23R WCI  10
MENOMONIE      PTCLDY    23   9  56 W6        30.23R WCI  15
NEW RICHMOND   CLOUDY    23  12  62 W7        30.23R WCI  15
OSCEOLA        CLOUDY    24  10  54 W8        30.27R WCI  16
$$

WIZ003>005-009-010-017-018-020200-
NORTH CENTRAL WISCONSIN

CITY           SKY/WX    TMP DP  RH WIND       PRES   REMARKS
MANITOWISH WTR PTCLDY    18   2  48 W12G22    30.08R WCI   6
ARBOR VITAE    CLEAR     20   3  48 W8        30.08R WCI  10
WOODRUFF       CLEAR     20   3  48 W8        30.08R WCI  10
RHINELANDER    PTCLDY    16   4  59 W12       30.09R WCI   3
EAGLE RIVER    PTCLDY    15   4  62 W9        30.06R WCI   3
LAND O LAKES   PTCLDY    15   6  65 W3        30.06R
PHILLIPS       PTCLDY    18   4  54 W6        30.12R WCI   9
TOMAHAWK       CLEAR     18   4  53 W10G16    30.12R WCI   6
MEDFORD        CLEAR     17   5  57 W9        30.15R WCI   6
MERRILL        CLEAR     18   5  57 W6        30.14R WCI   9
$$

WIZ029-030-035-036-043>047-020200-
CENTRAL WISCONSIN

CITY           SKY/WX    TMP DP  RH WIND       PRES   REMARKS
WAUSAU         CLEAR     19   5  54 W16       30.14R WCI   4
MOSINEE        CLEAR     16   7  67 W8        30.17R WCI   5
MARSHFIELD     CLEAR     19   5  54 W10       30.18R WCI   7
STEVENS POINT  CLEAR     19   5  54 W10       30.18R WCI   7
WAUPACA        CLEAR     20  11  69 SW3       30.20R
WAUTOMA        CLEAR     20   8  59 W10       30.21R WCI   9
WISC RAPIDS    CLEAR     20   3  48 W8        30.22R WCI  10
CAMP DOUGLAS   CLEAR     19   8  61 W12       30.24R WCI   6
$$

WIZ011>013-019>022-031-037>040-048>050-020200-
NORTHEAST WISCONSIN

CITY           SKY/WX    TMP DP  RH WIND       PRES   REMARKS
ANTIGO         CLEAR     13   7  74 W8        30.11R WCI   2
SHAWANO        CLEAR     21  10  63 SW5       30.17R WCI  14
OCONTO         CLEAR     19  10  69 W9        30.17R WCI   8
STURGEON BAY   MOCLDY    21  10  63 W14G22    30.16R WCI   8
GREEN BAY      CLEAR     21  12  68 W9        30.18R WCI  11
MANITOWOC      CLOUDY    23  15  71 W14       30.18R WCI  11
APPLETON       PTCLDY    19  10  68 W17       30.18R WCI   4
CLINTONVILLE   CLEAR     19  10  68 W5        30.17R WCI  13
OSHKOSH        CLEAR     21  11  65 W3        30.19R
$$

WIZ032>034-041-042-053>061-020200-
SOUTHWEST WISCONSIN

CITY           SKY/WX    TMP DP  RH WIND       PRES   REMARKS
LA CROSSE      CLEAR     20   7  57 SW7       30.30R WCI  11
SPARTA         CLEAR     19   7  57 SW5       30.28R WCI  13
VIROQUA        CLEAR     18   7  63 W9        30.25S WCI   6
BOSCOBEL       CLEAR     21   6  52 SW6       30.32R WCI  13
PRAIRIE DU CHI CLEAR     20   7  58 W5        30.33R WCI  13
PLATTEVILLE    CLEAR     18   9  67 W9        30.30R WCI   7
$$

WIZ056-057-062-063-064-067-068-020200-
SOUTH CENTRAL WISCONSIN

CITY           SKY/WX    TMP DP  RH WIND       PRES   REMARKS
REEDSBURG      CLEAR     21   8  56 W9        30.25R WCI  10
BARABOO/DELLS  CLEAR     20   8  58 W10       30.24R WCI   9
LONE ROCK      CLEAR     21   5  50 W12G22    30.29R WCI   9
MINERAL POINT  CLEAR     21   9  58 W15       30.26R WCI   8
MADISON        CLEAR     24  10  55 W9        30.24R WCI  14
MIDDLETON      CLEAR     24  10  55 W14       30.24R WCI  12
WATERTOWN      PTCLDY    23  15  71 SW7       30.21R WCI  15
MONROE         FAIR      21  14  73 W18       30.25R WCI   6
JANESVILLE     PTCLDY    25  16  68 SW10      30.25R WCI  15
$$

WIZ051-052-058>065-066-070>072-020200-
SOUTHEAST WISCONSIN

CITY           SKY/WX    TMP DP  RH WIND       PRES   REMARKS
MILWAUKEE      PTCLDY    24  13  62 SW12      30.22S WCI  13
WAUKESHA       PTCLDY    21  14  73 SW12      30.22R WCI   9
MILWAUKEE/TIMM CLEAR     23  14  68 SW9       30.22S WCI  13
RACINE         PTCLDY    22  13  68 SW8       30.25R WCI  12
BURLINGTON     CLEAR     19  13  79 SW9       30.23S WCI   8
KENOSHA        CLEAR     21  14  74 W15       30.23S WCI   8
FOND DU LAC    CLEAR     20  12  71 W7        30.20R WCI  11
SHEBOYGAN      CLOUDY    26  15  63 W10G21    30.18R WCI  16
WEST BEND      MOCLDY    25  16  68 W9        30.19R WCI  15
JUNEAU         PTCLDY    22  15  72 W7        30.22R WCI  14
$$

LSZ147-162-020200-
LAKE SUPERIOR

STATION/POSITION TIME  TEMP    WIND        PRES    WAVE
                       AIR SEA DIR/SP/G            HT/PER
                 (UTC) (F)     (DEG/KT/KT) (MB)    (FT/S)
DEVILS ISLAND    0100   24     280/ 23/ 28 1021.4R
PORT WING        0040   25     280/ 20/ 26 1021.0R
SAXON HARBOR     0000   24     260/  4/ 14 1020.3R
$$

LMZ867-665-643>646-020200-
LAKE MICHIGAN

STATION/POSITION TIME  TEMP    WIND        PRES    WAVE
                       AIR SEA DIR/SP/G            HT/PER
                 (UTC) (F)     (DEG/KT/KT) (MB)    (FT/S)
NORTHPORT PIER   0101   22     270/  9/ 20 1020.3R
SISTER BAY       0043   21     290/ 14/ 17   N/A
KEWAUNEE LAKESHO 0000   27     270/ 14/ 18 1019.7R
SHEBOYGAN LAKESH 0100   27     260/  9/ 11 1023.5R
PORT WASHINGTON  0000   26     240/  8/ 12 1023.0S
MILWAUKEE LAKESH 0000   26     260/ 13/ 19   N/A
KENOSHA   LAKESH 0100   24     230/  7/ 16 1024.0S
$$

TC  - TEMPERATURE IN CELSIUS
VSB - VISIBILITY IN STATUTE MILES
WCI - WIND CHILL INDEX
HX  - HEAT INDEX



USA.gov is the U.S. government's official web portal to all federal, state and local government web resources and services.